FW0127 Weather Reports


time (UTC)temp
F
wind
direction
speed
knots
gust
knots
rain 1hr
in
rain 24hr
in
rain mn
in
humidity
%
barometer
mb
20260504081504 46 114 0.0 0.0 0.00 0.00 0.00 80 1016.9
20260504070106 46 114 0.0 0.0 0.00 0.00 0.00 78 1016.9
20260504044557 46 114 0.0 0.0 0.00 0.00 0.00 76 1016.8
20260504043053 46 114 0.0 0.9 0.00 0.00 0.00 79 1016.8
20260504041549 45 113 0.0 0.0 0.00 0.00 0.00 81 1016.5
20260504040043 44 114 0.0 0.0 0.00 0.00 0.00 83 1016.6
20260504034551 43 114 0.0 0.0 0.00 0.00 0.00 84 1016.7
20260504033042 41 114 0.0 0.0 0.00 0.00 0.00 84 1016.7
20260504031542 41 114 0.0 0.0 0.00 0.00 0.00 83 1016.6
20260504030043 41 114 0.0 0.0 0.00 0.00 0.00 81 1016.7
20260504024540 41 114 0.0 0.0 0.00 0.00 0.00 80 1016.6
20260504023040 42 114 0.0 0.0 0.00 0.00 0.00 78 1016.7
20260504021539 42 114 0.0 0.0 0.00 0.00 0.00 77 1016.7
20260504020040 43 114 0.0 0.0 0.00 0.00 0.00 75 1016.5
20260504014551 44 114 0.0 0.0 0.00 0.00 0.00 75 1016.4
20260504013038 44 114 0.0 0.0 0.00 0.00 0.00 73 1016.4
20260504011540 46 114 0.0 0.0 0.00 0.00 0.00 71 1016.3
20260504010038 46 114 0.0 0.0 0.00 0.00 0.00 68 1016.2
20260504004537 48 114 0.0 0.0 0.00 0.00 0.00 66 1016.1
20260504003045 49 114 0.0 0.0 0.00 0.00 0.00 64 1016.0
20260504001536 51 114 0.0 0.0 0.00 0.00 0.00 61 1016.0
20260504000035 52 113 0.0 0.0 0.00 0.00 0.00 59 1015.8
20260503234544 54 113 0.0 0.0 0.00 0.00 0.00 54 1015.6
20260503233034 56 113 0.0 0.0 0.00 0.00 0.00 52 1015.5
20260503231534 58 113 0.0 0.0 0.00 0.00 0.00 45 1015.4
20260503230040 59 114 0.0 0.9 0.00 0.00 0.00 40 1015.3
20260503224532 60 138 0.0 1.7 0.00 0.00 0.00 40 1015.4
20260503223032 61 107 0.0 0.9 0.00 0.00 0.00 37 1015.6
20260503221532 62 127 0.0 1.7 0.00 0.00 0.00 37 1015.7
20260503220043 64 122 0.0 2.6 0.00 0.00 0.00 35 1015.8
20260503214530 65 143 0.0 2.6 0.00 0.00 0.00 35 1015.7
20260503213030 65 133 0.9 3.5 0.00 0.00 0.00 36 1015.8
20260503211530 64 130 0.0 3.5 0.00 0.00 0.00 34 1015.9
20260503210029 65 135 0.0 3.5 0.00 0.00 0.00 35 1016.0
20260503204528 64 166 0.9 3.5 0.00 0.00 0.00 35 1015.9
20260503203030 65 156 0.0 4.3 0.00 0.00 0.00 33 1015.9
20260503201525 64 136 0.9 4.3 0.00 0.00 0.00 37 1016.2
20260503200024 64 277 0.0 4.3 0.00 0.00 0.00 36 1016.4
20260503194523 64 135 1.7 5.2 0.00 0.00 0.00 38 1016.6
20260503193023 64 129 0.9 5.2 0.00 0.00 0.00 35 1016.9
20260503191521 63 79 0.9 5.2 0.00 0.00 0.00 39 1017.1
20260503190022 62 135 1.7 5.2 0.00 0.00 0.00 37 1017.2
20260503184518 62 153 1.7 5.2 0.00 0.00 0.00 34 1017.4
20260503183021 62 27 1.7 6.1 0.00 0.00 0.00 35 1017.4
20260503181514 61 150 1.7 5.2 0.00 0.00 0.00 38 1017.8
20260503180018 60 144 1.7 6.1 0.00 0.00 0.00 39 1017.9
20260503174512 60 79 1.7 5.2 0.00 0.00 0.00 38 1017.7
20260503173011 61 130 1.7 4.3 0.00 0.00 0.00 39 1017.9
20260503171512 60 123 0.9 6.1 0.00 0.00 0.00 40 1018.1